TimeCST,TemperatureF,Dew PointF,Humidity,Sea Level PressureIn,VisibilityMPH,Wind Direction,Wind SpeedMPH,Gust SpeedMPH,PrecipitationIn,Events,Conditions,WindDirDegrees,DateUTC
12:56 AM,39.9,28.0,63,30.05,-9999.0,SW,18.4,28.8,N/A,,Unknown,230,2013-01-10 06:56:00
1:56 AM,39.9,27.0,60,30.04,-9999.0,SW,31.1,39.1,N/A,,Unknown,230,2013-01-10 07:56:00
2:56 AM,39.9,28.0,63,30.03,-9999.0,SW,29.9,40.3,N/A,,Unknown,230,2013-01-10 08:56:00
3:56 AM,41.0,27.0,57,30.00,-9999.0,SW,32.2,47.2,N/A,,Unknown,230,2013-01-10 09:56:00
4:56 AM,42.1,27.0,55,29.96,-9999.0,WSW,32.2,43.7,N/A,,Unknown,240,2013-01-10 10:56:00
5:56 AM,42.1,27.0,55,29.94,-9999.0,WSW,39.1,55.2,N/A,,Unknown,240,2013-01-10 11:56:00
6:56 AM,41.0,27.0,57,29.98,-9999.0,SW,34.5,44.9,N/A,,Unknown,230,2013-01-10 12:56:00
7:56 AM,39.9,27.0,60,29.99,-9999.0,SW,29.9,39.1,N/A,,Unknown,230,2013-01-10 13:56:00
8:56 AM,39.0,27.0,62,29.98,-9999.0,SW,32.2,44.9,N/A,,Unknown,230,2013-01-10 14:56:00
9:56 AM,39.0,26.1,60,29.99,-9999.0,SW,31.1,42.6,N/A,,Unknown,220,2013-01-10 15:56:00
10:56 AM,39.0,26.1,60,29.97,-9999.0,South,25.3,32.2,N/A,,Unknown,190,2013-01-10 16:56:00
11:56 AM,39.0,28.0,65,29.91,-9999.0,SSE,17.3,-,N/A,,Unknown,160,2013-01-10 17:56:00
12:56 PM,39.9,26.1,58,29.86,-9999.0,SSW,26.5,33.4,N/A,,Unknown,200,2013-01-10 18:56:00
1:56 PM,39.9,25.0,55,29.83,-9999.0,South,18.4,-,N/A,,Unknown,180,2013-01-10 19:56:00
2:56 PM,39.0,26.1,60,29.83,-9999.0,South,23.0,28.8,N/A,,Unknown,180,2013-01-10 20:56:00
3:56 PM,37.0,28.0,70,29.81,-9999.0,South,17.3,-,N/A,,Unknown,180,2013-01-10 21:56:00
4:56 PM,34.0,30.0,85,29.77,-9999.0,South,17.3,-,0.01,,Unknown,170,2013-01-10 22:56:00
5:56 PM,34.0,33.1,96,29.72,-9999.0,South,20.7,-,N/A,,Unknown,170,2013-01-10 23:56:00
6:56 PM,34.0,32.0,92,29.68,-9999.0,South,20.7,27.6,N/A,,Unknown,170,2013-01-11 00:56:00
7:56 PM,33.1,32.0,96,29.68,-9999.0,South,21.9,27.6,N/A,,Unknown,180,2013-01-11 01:56:00
8:56 PM,33.1,32.0,96,29.65,-9999.0,South,15.0,-,N/A,,Unknown,170,2013-01-11 02:56:00
9:56 PM,33.1,32.0,96,29.61,-9999.0,South,17.3,-,N/A,,Unknown,170,2013-01-11 03:56:00
10:56 PM,33.1,32.0,96,29.58,-9999.0,South,19.6,-,0.02,,Unknown,170,2013-01-11 04:56:00
11:56 PM,33.1,33.1,100,29.57,-9999.0,South,10.4,-,N/A,,Unknown,190,2013-01-11 05:56:00